Weather in Borki

Russia / Kursk Oblast     51°06′15″N   35°24′15″E
temp.,
°C
wind,
m/s
gust,
m/s
humid.,
%
clouds,
%
prec.,
mm/h
press.,
hPa
HPBL,
m
7 march, sun
sun700:00−6wnw3595100 0.3 1022281
03:00−7w379586 0.3 1022212
06:00−7wsw5109025 0.0 1020271
09:00−5wsw7147438 0.0 1018639
12:00−2sw101670100 0.0 10141108
15:000wsw111777100 0.0 10101231
18:00−1wsw101788100 0.2 10081145
21:000wsw91686100 0.3 10071051
8 march, mon
mon800:00−1wsw71390100 0.2 1007802
03:00−1w71295100 0.5 1006769
06:00−2wsw61295100 0.4 1006733
09:00−1w61089100 0.9 1006995
12:00−1w71080100 0.3 10081256
15:00−2wnw6875100 0.4 10081225
18:00−3w4982100 0.2 1009549
21:00−5w498991 0.2 1011289
9 march, tue
tue900:00−6nw498979 0.2 1013327
03:00−9nw489140 0.2 1013261
06:00−10wnw36923 0.0 1015214
09:00−8nw469144 0.1 1017384
12:00−7nw4685100 0.1 1018656
15:00−6nw5779100 0.1 1019865
18:00−8nw4785100 0.1 1020602
21:00−10nw369182 0.1 1022178
10 march, wed
wed1000:00−11nw229224 0.0 102380
03:00−12nnw229127 0.0 102470
06:00−13n229022 0.0 102572
09:00−11nne228447 0.0 1026149
12:00−8nne117364 0.0 1026398
15:00−6ne006551 0.0 1026588
18:00−7ene127793 0.0 102552
21:00−9e228388 0.0 102629
11 march, thu
thu1100:00−8ese228362 0.0 102737
03:00−9ese228377 0.0 102830
06:00−9se23823 0.0 102837
09:00−7sse36762 0.0 1028241
12:00−3ssw466091 0.0 1028803
15:00−2s475487 0.0 10261266
18:00−3s346512 0.0 102595
21:00−4s511656 0.0 1025224